Weather History for Douglas, WY

Change the Weather History Date:

Wednesday, May 15, 2013

  Actual Average Record
Temperature  
Mean Temperature 63 °F 53 °F  
Max Temperature 81 °F 68 °F 82 °F (2012)
Min Temperature 45 °F 38 °F 20 °F (2004)
Degree Days  
Heating Degree Days 2 12  
Month to date heating degree days 185 220  
Since 1 July heating degree days 6951 7177  
Cooling Degree Days 0 0  
Month to date cooling degree days 9 0  
Year to date cooling degree days 9 0  
Growing Degree Days 12 (Base 50)    
Moisture  
Dew Point 43 °F    
Average Humidity 53    
Maximum Humidity 86    
Minimum Humidity 20    
Precipitation  
Precipitation 0.11 in 0.07 in 0.79 in (2010)
Month to date precipitation 0.31 1.19  
Year to date precipitation 3.13 4.34  
Sea Level Pressure  
Sea Level Pressure 29.83 in    
Wind  
Wind Speed 10 mph (NNW)    
Max Wind Speed 32 mph    
Max Gust Speed 40 mph    
Visibility 9 miles    
Events Rain , Thunderstorm    
T = Trace of Precipitation, MM = Missing Value Source: NWS Daily Summary

Daily Weather History Graph

Daily Weather History Graph

Search for Another Location

Airport:

Trip Planner

Search our weather history database for the weather conditions in past years. The results will help you decide how hot, cold, wet, or windy it might be!

Date:

Astronomy

May. 15, 2013 Rise Set
Actual Time 5:38 AM MDT 8:17 PM MDT
Civil Twilight 5:06 AM MDT 8:50 PM MDT
Nautical Twilight 4:25 AM MDT 9:31 PM MDT
Astronomical Twilight 3:38 AM MDT 10:18 PM MDT
Moon 10:18 AM MDT (5/15) 12:04 AM MDT (5/15)
Length of Visible Light 15h 44m
Length of Day
14h 39m
Waxing Crescent, 27% of the Moon is Illuminated
May 15
Waxing Crescent
May 17
First Quarter
May 24
Full
May 31
Last Quarter
Jun 8
New

Hourly Weather History & Observations

Time (MDT) Temp. Windchill Dew Point Humidity Pressure Visibility Wind Dir Wind Speed Gust Speed Precip Events Conditions
12:53 AM 57.9 °F - 44.1 °F 60% 29.75 in 10.0 mi SE 3.5 mph - N/A   Clear
1:53 AM 55.9 °F - 41.0 °F 57% 29.76 in 10.0 mi NW 8.1 mph - N/A   Clear
2:53 AM 55.9 °F - 43.0 °F 62% 29.78 in 10.0 mi NW 10.4 mph - N/A   Clear
3:53 AM 53.1 °F - 39.0 °F 59% 29.78 in 10.0 mi WNW 16.1 mph - N/A   Clear
4:53 AM 51.1 °F - 39.0 °F 63% 29.79 in 10.0 mi NW 13.8 mph - N/A   Clear
5:53 AM 45.0 °F 42.6 °F 37.9 °F 76% 29.83 in 10.0 mi WNW 4.6 mph - N/A   Clear
6:53 AM 50.0 °F - 39.0 °F 66% 29.84 in 10.0 mi NNW 6.9 mph - N/A   Clear
7:53 AM 55.9 °F - 39.0 °F 53% 29.85 in 10.0 mi NW 9.2 mph - N/A   Clear
8:53 AM 61.0 °F - 41.0 °F 48% 29.86 in 10.0 mi NW 8.1 mph - N/A   Clear
9:53 AM 66.9 °F - 42.1 °F 40% 29.87 in 10.0 mi NNW 9.2 mph 17.3 mph N/A   Clear
11:53 AM 73.9 °F - 42.1 °F 32% 29.83 in 10.0 mi NE 5.8 mph - N/A   Clear
12:53 PM 75.9 °F - 37.9 °F 25% 29.80 in 10.0 mi Calm Calm - N/A   Clear
1:53 PM 78.1 °F - 37.9 °F 24% 29.78 in 10.0 mi Variable 3.5 mph - N/A   Clear
2:53 PM 80.1 °F - 37.9 °F 22% 29.75 in 10.0 mi SE 6.9 mph - N/A   Clear
3:53 PM 80.1 °F - 36.0 °F 20% 29.73 in 10.0 mi ESE 5.8 mph 17.3 mph N/A   Clear
4:45 PM 77.0 °F - 41.0 °F 28% 29.89 in 6.0 mi South 28.8 mph 36.8 mph N/A Thunderstorm Haze
4:53 PM 72.0 °F - 41.0 °F 33% 29.76 in 6.0 mi SSW 29.9 mph 38.0 mph N/A Thunderstorm Haze
5:12 PM 69.8 °F - 41.0 °F 35% 29.89 in 10.0 mi SSW 26.5 mph 32.2 mph N/A   Clear
5:53 PM 70.0 °F - 42.1 °F 36% 29.77 in 10.0 mi SSW 23.0 mph 31.1 mph N/A   Partly Cloudy
6:40 PM 62.6 °F - 46.4 °F 55% 29.93 in 10.0 mi North 16.1 mph 27.6 mph N/A   Overcast
6:53 PM 62.1 °F - 46.0 °F 56% 29.84 in 10.0 mi NNW 15.0 mph 21.9 mph 0.00 in Rain Light Rain
7:38 PM 57.2 °F - 51.8 °F 82% 29.97 in 10.0 mi NNW 6.9 mph - 0.03 in Rain , Thunderstorm Light Thunderstorms and Rain
7:53 PM 55.9 °F - 51.1 °F 84% 29.88 in 3.0 mi NNW 11.5 mph - 0.08 in Rain , Thunderstorm Rain
8:22 PM 57.2 °F - 51.8 °F 82% 29.98 in 9.0 mi ENE 9.2 mph - 0.02 in Rain Light Rain
8:53 PM 57.0 °F - 52.0 °F 83% 29.84 in 10.0 mi ENE 12.7 mph - 0.03 in   Overcast
9:53 PM 55.9 °F - 50.0 °F 80% 29.82 in 10.0 mi ESE 15.0 mph - 0.00 in   Overcast
10:53 PM 55.9 °F - 52.0 °F 87% 29.97 in 10.0 mi South 11.5 mph - N/A   Overcast
11:53 PM 55.9 °F - 51.1 °F 84% 29.82 in 10.0 mi SE 6.9 mph - 0.00 in Rain Light Rain